AUR54H EGJB-EGHI

Flight info

Callsign AUR54H
Flight time N/A
Altitude 13000
Route ORTAC Q41 THRED
Aircraft AT76/M-SDFGIRY/S

Departure

Time 2026-04-26 08:19
Airport Guernsey Airport (EGJB)

Arrival

Time N/A
Airport Southampton Airport (EGHI)
Time Latitude Longitude Altitude Speed Heading
2026-04-26 08:00 49.43275 -2.59563 324 ft 0 kts 178°
2026-04-26 08:07 49.43280 -2.59563 322 ft 5 kts 178°
2026-04-26 08:07 49.43307 -2.59564 326 ft 9 kts 182°
2026-04-26 08:08 49.43334 -2.59561 327 ft 10 kts 192°
2026-04-26 08:08 49.43358 -2.59547 326 ft 9 kts 229°
2026-04-26 08:08 49.43364 -2.59529 326 ft 1 kts 267°
2026-04-26 08:14 49.43362 -2.59603 327 ft 17 kts 267°
2026-04-26 08:14 49.43347 -2.59797 324 ft 19 kts 268°
2026-04-26 08:15 49.43341 -2.60000 310 ft 20 kts 268°
2026-04-26 08:15 49.43334 -2.60257 293 ft 27 kts 267°
2026-04-26 08:15 49.43326 -2.60544 290 ft 26 kts 269°
2026-04-26 08:15 49.43348 -2.60795 297 ft 21 kts 280°
2026-04-26 08:16 49.43363 -2.60987 307 ft 16 kts 267°
2026-04-26 08:16 49.43359 -2.61185 309 ft 18 kts 268°
2026-04-26 08:16 49.43411 -2.61338 312 ft 16 kts 317°
2026-04-26 08:16 49.43467 -2.61332 312 ft 4 kts 83°
2026-04-26 08:17 49.43467 -2.61327 312 ft 0 kts 90°
2026-04-26 08:17 49.43468 -2.61263 311 ft 24 kts 88°
2026-04-26 08:17 49.43482 -2.60814 306 ft 59 kts 88°
2026-04-26 08:17 49.43500 -2.60021 314 ft 87 kts 88°
2026-04-26 08:18 49.43534 -2.58985 333 ft 108 kts 87°
2026-04-26 08:18 49.43582 -2.57808 546 ft 110 kts 89°
2026-04-26 08:18 49.43607 -2.56548 579 ft 127 kts 88°
2026-04-26 08:18 49.43615 -2.55199 832 ft 130 kts 91°
2026-04-26 08:19 49.43619 -2.53681 841 ft 151 kts 90°
2026-04-26 08:19 49.43644 -2.52023 1048 ft 158 kts 89°
2026-04-26 08:19 49.43691 -2.50314 1480 ft 159 kts 88°
2026-04-26 08:19 49.43728 -2.48614 1798 ft 162 kts 89°
2026-04-26 08:20 49.43872 -2.46921 2024 ft 164 kts 65°
2026-04-26 08:20 49.44744 -2.45832 2246 ft 167 kts 18°
2026-04-26 08:20 49.45884 -2.45374 2495 ft 170 kts 17°